Ft Riley, KS

8:16 AM CDT on October 20, 2017 (GMT -0500)
Marshall Army Air Field

Weather History for KFRI - August, 2013

Change the Weather History Date:

Wednesday, August 7, 2013

  Actual Average (KMHK) Record (KMHK)
Temperature  
Mean Temperature 76 °F -  
Max Temperature 84 °F 87 °F 100 °F (2000)
Min Temperature 68 °F 62 °F 51 °F (2004)
Cooling Degree Days 12    
Growing Degree Days 26 (Base 50)    
Moisture  
Dew Point 71 °F    
Average Humidity 90    
Maximum Humidity 100    
Minimum Humidity 65    
Precipitation  
Precipitation 0.75 in - - ()
Sea Level Pressure  
Sea Level Pressure 29.87 in    
Wind  
Wind Speed 13 mph (North)    
Max Wind Speed 33 mph    
Max Gust Speed 50 mph    
Visibility 8 miles    
Events Rain , Thunderstorm    
Averages and records for this station are not official NWS values.
T = Trace of Precipitation, MM = Missing Value Source: NWS Daily Summary

Daily Weather History Graph

Daily Weather History Graph

Search for Another Location

Airport or City:

Trip Planner

Search our weather history database for the weather conditions in past years. The results will help you decide how hot, cold, wet, or windy it might be!

Date:

Astronomy

Aug. 07, 2013 Rise Set
Actual Time 6:33 AM CDT 8:31 PM CDT
Civil Twilight 6:04 AM CDT 9:00 PM CDT
Nautical Twilight 5:28 AM CDT 9:36 PM CDT
Astronomical Twilight 4:49 AM CDT 10:14 PM CDT
Moon 7:22 AM CDT (8/7) 8:40 PM CDT (8/7)
Length of Visible Light 14h 56m
Length of Day
13h 58m
New Moon, 1% of the Moon is Illuminated
Aug 7
New Moon
Aug 14
First Quarter
Aug 20
Full
Aug 28
Last Quarter
Sep 5
New

Hourly Weather History & Observations

Time (CDT) Temp. Heat Index Dew Point Humidity Pressure Visibility Wind Dir Wind Speed Gust Speed Precip Events Conditions
12:58 AM 77.7 °F - 77.7 °F 100% 29.81 in 10.0 mi NNE 5.8 mph - N/A   Clear
1:58 AM 77.4 °F - 77.4 °F 100% 29.78 in 10.0 mi NNE 2.3 mph - N/A   Mostly Cloudy
2:29 AM 77.0 °F - 69.8 °F 78% 29.85 in 10.0 mi SW 33.4 mph 42.6 mph N/A   Light Drizzle
2:39 AM 71.6 °F - 68.0 °F 88% 29.85 in 5.0 mi SSW 29.9 mph 43.7 mph N/A Rain , Thunderstorm Light Thunderstorms and Rain
2:40 AM 71.6 °F - 68.0 °F 88% 29.85 in 5.0 mi South 28.8 mph 43.7 mph N/A Rain , Thunderstorm Light Thunderstorms and Rain
2:43 AM 71.6 °F - 68.0 °F 88% 29.85 in 2.5 mi SSW 19.6 mph 39.1 mph N/A Rain , Thunderstorm Thunderstorms and Rain
2:44 AM 71.6 °F - 68.0 °F 88% 29.85 in 1.8 mi SW 26.5 mph 43.7 mph N/A Rain , Thunderstorm Heavy Thunderstorms and Rain
2:49 AM 69.8 °F - 69.8 °F 100% 29.84 in 0.8 mi SSW 28.8 mph 49.5 mph N/A Rain , Thunderstorm Heavy Thunderstorms and Rain
2:54 AM 69.8 °F - 69.8 °F 100% 29.85 in 1.0 mi SSW 25.3 mph 49.5 mph N/A Rain , Thunderstorm Heavy Thunderstorms and Rain
2:58 AM 69.8 °F - 69.8 °F 100% 29.82 in 1.8 mi SSW 24.2 mph 36.8 mph 0.43 in Rain , Thunderstorm Heavy Thunderstorms and Rain
3:03 AM 69.8 °F - 69.8 °F 100% 29.86 in 2.5 mi SSW 18.4 mph 29.9 mph N/A Rain , Thunderstorm Heavy Thunderstorms and Rain
3:08 AM 69.8 °F - 69.8 °F 100% 29.86 in 4.0 mi SSW 12.7 mph 29.9 mph N/A Rain , Thunderstorm Thunderstorms and Rain
3:17 AM 71.6 °F - 71.6 °F 100% 29.85 in 9.0 mi South 9.2 mph - N/A Rain , Thunderstorm Light Rain
3:51 AM 71.6 °F - 71.6 °F 100% 29.85 in 10.0 mi WSW 6.9 mph - N/A   Partly Cloudy
3:58 AM 72.0 °F - 72.0 °F 100% 29.81 in 10.0 mi WSW 4.6 mph - 0.14 in   Partly Cloudy
4:15 AM 71.6 °F - 71.6 °F 100% 29.86 in 9.0 mi WSW 5.8 mph - N/A Rain , Thunderstorm Light Rain
4:17 AM 71.6 °F - 71.6 °F 100% 29.86 in 7.0 mi WSW 8.1 mph - N/A Rain , Thunderstorm Thunderstorms and Rain
4:47 AM 73.4 °F - 68.0 °F 83% 29.85 in 2.5 mi North 13.8 mph 17.3 mph N/A Rain , Thunderstorm Heavy Thunderstorms and Rain
4:50 AM 71.6 °F - 68.0 °F 88% 29.85 in 3.0 mi NNE 12.7 mph - N/A Rain , Thunderstorm Heavy Thunderstorms and Rain
4:55 AM 71.6 °F - 69.8 °F 94% 29.85 in 4.0 mi NNE 11.5 mph - N/A Rain , Thunderstorm Thunderstorms and Rain
4:58 AM 71.6 °F - 69.8 °F 94% 29.83 in 5.0 mi Variable 6.9 mph - 0.15 in Rain , Thunderstorm Light Thunderstorms and Rain
5:13 AM 71.6 °F - 69.8 °F 94% 29.87 in 10.0 mi Variable 3.5 mph - N/A Rain , Thunderstorm Light Thunderstorms and Rain
5:26 AM 71.6 °F - 68.0 °F 88% 29.85 in 7.0 mi Variable 1.2 mph - N/A Rain Light Rain
5:31 AM 71.6 °F - 69.8 °F 94% 29.85 in 10.0 mi WSW 3.5 mph - N/A   Scattered Clouds
5:58 AM 70.9 °F - 70.9 °F 100% 29.82 in 10.0 mi North 4.6 mph - 0.03 in   Partly Cloudy
6:58 AM 71.2 °F - 71.2 °F 100% 29.84 in 10.0 mi NNE 8.1 mph - N/A   Partly Cloudy
7:58 AM 72.9 °F - 72.9 °F 100% 29.86 in 10.0 mi NNE 2.3 mph - N/A   Clear
8:58 AM 78.4 °F - 76.6 °F 94% 29.89 in 10.0 mi NNE 6.9 mph - N/A   Clear
9:58 AM 78.8 °F - 73.9 °F 85% 29.90 in 10.0 mi NNE 8.1 mph - N/A   Scattered Clouds
10:58 AM 79.0 °F - 72.1 °F 79% 29.91 in 10.0 mi NNE 8.1 mph - N/A   Partly Cloudy
11:58 AM 79.0 °F - 72.5 °F 80% 29.92 in 10.0 mi NE 8.1 mph - N/A   Clear
12:58 PM 80.6 °F 85.2 °F 73.0 °F 78% 29.93 in 10.0 mi NNE 10.4 mph - N/A   Clear
2:56 PM 84.2 °F 90.9 °F 73.4 °F 70% 29.96 in 10.0 mi NE 8.1 mph - N/A   Mostly Cloudy
3:58 PM 84.2 °F 90.6 °F 73.2 °F 69% 29.92 in 10.0 mi North 6.9 mph - N/A   Partly Cloudy
4:58 PM 83.8 °F 88.9 °F 71.6 °F 66% 29.92 in 10.0 mi NE 8.1 mph - N/A   Clear
5:58 PM 83.1 °F 87.6 °F 70.5 °F 66% 29.92 in 10.0 mi North 9.2 mph - N/A   Clear
6:58 PM 81.7 °F 84.9 °F 69.1 °F 65% 29.90 in 10.0 mi NNE 8.1 mph - N/A   Clear
7:58 PM 77.0 °F - 70.3 °F 80% 29.91 in 10.0 mi NNE 4.6 mph - N/A   Clear
8:58 PM 73.2 °F - 73.2 °F 100% 29.92 in 10.0 mi NNE 4.6 mph - N/A   Scattered Clouds
9:58 PM 72.9 °F - 72.3 °F 98% 29.94 in 10.0 mi NE 4.6 mph - N/A   Partly Cloudy
10:58 PM 71.6 °F - 67.5 °F 87% 29.95 in 10.0 mi ENE 2.3 mph - N/A   Clear
11:58 PM 68.5 °F - 67.1 °F 95% 29.96 in 10.0 mi ENE 4.6 mph - N/A   Clear